Location: Newark
(39.0083°N, 20.7336°E)
Time: 00:26:24
(UTC+00:00)

N. Korean satellite - Pass Details

Date: 26 September 2021
Orbit: 450 x 495 km, 97.3° (Epoch: 25 October)

Event Time Altitude Azimuth Distance (km) Brightness Sun altitude
Rises 03:05:09 0° 28° (NNE) 2,534 10.8 -16.9°
Reaches altitude 10° 03:07:38 10° 46° (NE) 1,659 10.2 -16.4°
Maximum altitude 03:10:18 20° 95° (E) 1,182 9.5 -15.9°
Drops below altitude 10° 03:12:58 10° 143° (SE) 1,667 9.6 -15.4°
Sets 03:15:28 0° 161° (SSE) 2,550 10.3 -14.9°
